,,PA_Meas_PMT16A,,PR_Meas_QMR101_102,,RH_Meas_QMH101,,SR_Meas_QMS101,,TA_Meas_QMH101,,GenWind,,GenWind,
time,status,PA,status,PR,status,RH,status,SR,status,TA,status,DirAvg,status,SpdAvg,
2016-10-14, 00:00:04,VALID,914.548,VALID,0,VALID,103.343,VALID,132.26,VALID,23.0356,VALID,354,VALID,0,
2016-10-14, 00:01:04,VALID,915.456,VALID,0,VALID,104,VALID,131.293,VALID,23.0941,VALID,23,VALID,0,
2016-10-14, 00:02:04,VALID,916.473,VALID,0,VALID,104,VALID,131.508,VALID,23.0746,VALID,9,VALID,0.2125,
2016-10-14, 00:03:04,VALID,915.454,VALID,0,VALID,98.9977,VALID,118.293,VALID,23.0551,VALID,25,VALID,0,
2016-10-14, 00:04:04,VALID,914.852,VALID,0,VALID,90.1164,VALID,102.177,VALID,23.0941,VALID,24,VALID,0,
2016-10-14, 00:05:04,VALID,915.98,VALID,0,VALID,86.3123,VALID,139.136,VALID,23.0924,VALID,32,VALID,0,
2016-10-14, 00:06:04,VALID,914.659,VALID,0,VALID,86.0989,VALID,132.797,VALID,23.1314,VALID,360,VALID,0,
2016-10-14, 00:08:04,VALID,913.671,VALID,0,VALID,85.4509,VALID,158.691,VALID,23.2502,VALID,355,VALID,0,
2016-10-14, 15:15:04,VALID,917.897,VALID,0,INVALID,116.836,VALID,155.36,VALID,19.9188,VALID,9,VALID,0.854297,
2016-10-14, 15:16:04,VALID,917.93,VALID,0,INVALID,116.684,VALID,164.17,VALID,19.9968,VALID,328,VALID,0.266797,
2016-10-14, 15:17:04,VALID,917.911,VALID,0,INVALID,116.715,VALID,164.922,VALID,20.0148,VALID,34,VALID,1.03555,
2016-10-14, 15:18:04,VALID,917.888,VALID,0,INVALID,116.646,VALID,163.74,VALID,20.0733,VALID,9,VALID,0.466406,
2016-10-14, 15:19:04,VALID,917.903,VALID,0,INVALID,116.501,VALID,199.411,VALID,20.1903,VALID,17,VALID,1.43359,
2016-10-14, 15:20:04,VALID,917.883,VALID,0.2,INVALID,116.608,VALID,203.923,VALID,20.1513,VALID,358,VALID,0.297266,
2016-10-14, 15:21:04,VALID,917.833,VALID,0,INVALID,116.737,VALID,204.461,VALID,20.1708,VALID,18,VALID,1.73516,
2016-10-14, 15:22:04,VALID,917.887,VALID,0,INVALID,116.951,VALID,211.337,VALID,20.1513,VALID,342,VALID,1.26172,
2016-10-14, 15:23:04,VALID,917.836,VALID,0,INVALID,116.882,VALID,191.46,VALID,20.1708,VALID,11,VALID,1.73945,
2016-10-14, 15:24:04,VALID,917.899,VALID,0,INVALID,116.722,VALID,195.328,VALID,20.2684,VALID,331,VALID,1.65156,
2016-10-14, 15:25:04,VALID,917.835,VALID,0,INVALID,117.294,VALID,186.625,VALID,20.0928,VALID,26,VALID,1.25625,
2016-10-14, 15:26:04,VALID,917.851,VALID,0,INVALID,117.218,VALID,191.997,VALID,20.1708,VALID,19,VALID,0.102344,
2016-10-14, 15:27:04,VALID,917.87,VALID,0,INVALID,117.18,VALID,216.601,VALID,20.2293,VALID,25,VALID,1.20117,
2016-10-14, 15:28:04,VALID,917.856,VALID,0,INVALID,117.096,VALID,202.097,VALID,20.3074,VALID,36,VALID,1.6043,
2016-10-14, 15:29:04,VALID,917.823,VALID,0,INVALID,117.164,VALID,175.237,VALID,20.3464,VALID,20,VALID,1.97539,
2016-10-14, 15:30:04,VALID,917.851,VALID,0,INVALID,117.08,VALID,182.005,VALID,20.4259,VALID,346,VALID,0.277344,
2016-10-14, 15:31:04,VALID,917.844,VALID,0,INVALID,117.248,VALID,171.046,VALID,20.4259,VALID,8,VALID,1.63047,
2016-10-14, 15:32:04,VALID,917.874,VALID,0,INVALID,117.286,VALID,210.37,VALID,20.4454,VALID,257,VALID,0.183594,
2016-10-14, 15:33:04,VALID,917.885,VALID,0,INVALID,117.614,VALID,228.527,VALID,20.3674,VALID,66,VALID,1.02109,
2016-10-14, 15:34:04,VALID,917.885,VALID,0,INVALID,117.965,VALID,230.569,VALID,20.3089,VALID,18,VALID,1.8293,
2016-10-14, 15:35:04,VALID,917.901,VALID,0,INVALID,117.667,VALID,202.419,VALID,20.4064,VALID,16,VALID,2.00664,
2016-10-14, 15:36:04,VALID,917.92,VALID,0,INVALID,117.889,VALID,223.585,VALID,20.3869,VALID,9,VALID,2.275,
2016-10-14, 15:37:04,VALID,917.956,VALID,0,INVALID,117.782,VALID,225.734,VALID,20.4634,VALID,327,VALID,0.527344,
2016-10-14, 15:38:04,VALID,917.984,VALID,0,INVALID,117.965,VALID,211.229,VALID,20.4244,VALID,356,VALID,0.791797,
2016-10-14, 15:39:04,VALID,917.971,VALID,0,INVALID,118.102,VALID,200.055,VALID,20.4439,VALID,329,VALID,0.877734,
2016-10-14, 15:40:04,VALID,917.978,VALID,0,INVALID,118.224,VALID,167.286,VALID,20.4259,VALID,1,VALID,0.882422,
2016-10-14, 15:41:04,VALID,917.976,VALID,0,INVALID,118.14,VALID,168.145,VALID,20.4829,VALID,37,VALID,0,
2016-10-14, 15:44:04,VALID,918.052,VALID,0,INVALID,118.437,VALID,153.641,VALID,20.4829,VALID,21,VALID,2.17109,
2016-10-14, 15:45:04,VALID,918.057,VALID,0,INVALID,118.796,VALID,172.658,VALID,20.3854,VALID,26,VALID,1.60977,
2016-10-14, 15:46:04,VALID,918.111,VALID,0,INVALID,118.689,VALID,222.403,VALID,20.4244,VALID,272,VALID,0.365234,
2016-10-14, 15:47:04,VALID,918.062,VALID,0,INVALID,118.62,VALID,219.502,VALID,20.4845,VALID,351,VALID,0.921094,
2016-10-14, 15:48:04,VALID,918.139,VALID,0,INVALID,118.536,VALID,197.584,VALID,20.5219,VALID,9,VALID,0,
2016-10-14, 15:49:04,VALID,918.173,VALID,0,INVALID,118.536,VALID,179.642,VALID,20.5804,VALID,354,VALID,0.231641,
2016-10-14, 15:50:04,VALID,918.197,VALID,0,INVALID,119.146,VALID,159.013,VALID,20.4049,VALID,313,VALID,0.775,
2016-10-14, 15:51:04,VALID,918.195,VALID,0,INVALID,118.994,VALID,143.649,VALID,20.5235,VALID,37,VALID,0.00820312,
2016-10-14, 15:52:04,VALID,918.231,VALID,0,INVALID,118.918,VALID,159.55,VALID,20.5609,VALID,53,VALID,0,
2016-10-14, 15:53:04,VALID,918.216,VALID,0,INVALID,118.948,VALID,146.335,VALID,20.5804,VALID,134,VALID,0.861328,
2016-10-14, 15:54:04,VALID,918.247,VALID,0,INVALID,119.291,VALID,146.335,VALID,20.5414,VALID,23,VALID,1.15,
2016-10-14, 15:55:04,VALID,918.275,VALID,0,INVALID,119.192,VALID,167.608,VALID,20.5804,VALID,4,VALID,0.123047,
2016-10-14, 15:56:04,VALID,918.296,VALID,0,INVALID,119.146,VALID,195.006,VALID,20.6194,VALID,33,VALID,0.0398437,
2016-10-14, 15:57:04,VALID,918.287,VALID,0,INVALID,119.406,VALID,195.221,VALID,20.5414,VALID,150,VALID,0.0570313,
2016-10-14, 15:58:04,VALID,918.32,VALID,0,INVALID,119.291,VALID,235.726,VALID,20.639,VALID,25,VALID,1.44453,
2016-10-14, 15:59:04,VALID,918.35,VALID,0,INVALID,119.383,VALID,197.369,VALID,20.6585,VALID,322,VALID,0.534375,
2016-10-14, 16:00:04,VALID,918.339,VALID,0,INVALID,119.223,VALID,225.304,VALID,20.756,VALID,321,VALID,0.00117188,
2016-10-14, 16:01:04,VALID,918.349,VALID,0,INVALID,119.558,VALID,212.196,VALID,20.6975,VALID,310,VALID,1.04414,
2016-10-14, 16:02:04,VALID,918.354,VALID,0,INVALID,119.627,VALID,240.776,VALID,20.6975,VALID,257,VALID,0,
2016-10-14, 16:03:04,VALID,918.404,VALID,0,INVALID,119.733,VALID,230.032,VALID,20.7154,VALID,210,VALID,0.751172,
2016-10-14, 16:04:04,VALID,918.4,VALID,0,INVALID,119.977,VALID,243.462,VALID,20.6975,VALID,46,VALID,0.559375,
2016-10-14, 16:05:04,VALID,918.389,VALID,0,INVALID,119.901,VALID,225.412,VALID,20.7349,VALID,10,VALID,0.144922,
2016-10-14, 16:06:04,VALID,918.421,VALID,0,INVALID,120.137,VALID,273.653,VALID,20.6569,VALID,245,VALID,1.09492,
2016-10-14, 16:07:04,VALID,918.406,VALID,0,INVALID,120.145,VALID,252.487,VALID,20.7365,VALID,205,VALID,0.0121094,
2016-10-14, 16:08:04,VALID,918.403,VALID,0,INVALID,120.389,VALID,215.849,VALID,20.6569,VALID,267,VALID,1.33398,
2016-10-14, 16:09:04,VALID,918.396,VALID,0,INVALID,120.541,VALID,228.742,VALID,20.6374,VALID,91,VALID,1.08047,
2016-10-14, 16:10:04,VALID,918.379,VALID,0,INVALID,120.458,VALID,230.461,VALID,20.717,VALID,86,VALID,0.741406,
2016-10-14, 16:11:04,VALID,918.369,VALID,0,INVALID,120.587,VALID,260.975,VALID,20.7154,VALID,129,VALID,0.848047,
2016-10-14, 16:12:04,VALID,918.323,VALID,0,INVALID,120.816,VALID,263.016,VALID,20.6975,VALID,89,VALID,1.03203,
2016-10-14, 16:13:04,VALID,918.408,VALID,0,INVALID,120.846,VALID,288.157,VALID,20.7349,VALID,282,VALID,1.34766,
2016-10-14, 16:14:04,VALID,918.438,VALID,0,INVALID,120.77,VALID,294.066,VALID,20.8519,VALID,191,VALID,0.378906,
2016-10-14, 16:15:04,VALID,918.4,VALID,0,INVALID,120.976,VALID,268.818,VALID,20.7934,VALID,189,VALID,0,
2016-10-14, 16:16:04,VALID,918.281,VALID,0,INVALID,121.006,VALID,278.595,VALID,20.912,VALID,89,VALID,0.910156,
2016-10-14, 16:17:04,VALID,918.418,VALID,0,INVALID,121.037,VALID,299.546,VALID,20.891,VALID,119,VALID,0.639844,
2016-10-14, 16:18:04,VALID,918.45,VALID,0,INVALID,120.961,VALID,310.075,VALID,21.0275,VALID,346,VALID,0,
2016-10-14, 16:19:04,VALID,918.403,VALID,0,INVALID,121.006,VALID,334.572,VALID,21.0275,VALID,31,VALID,2.06445,
2016-10-14, 16:20:04,VALID,918.417,VALID,0,INVALID,120.938,VALID,337.795,VALID,21.1445,VALID,26,VALID,0,
2016-10-14, 16:21:04,VALID,918.402,VALID,0,INVALID,121.014,VALID,339.621,VALID,21.0665,VALID,273,VALID,1.73789,
2016-10-14, 16:22:04,VALID,918.462,VALID,0,INVALID,120.816,VALID,290.306,VALID,21.047,VALID,264,VALID,1.57734,
2016-10-14, 16:23:04,VALID,918.419,VALID,0,INVALID,120.77,VALID,339.514,VALID,21.1055,VALID,38,VALID,1.86367,
2016-10-14, 16:24:04,VALID,918.373,VALID,0,INVALID,120.74,VALID,355.2,VALID,21.1234,VALID,10,VALID,2.93555,
2016-10-14, 16:25:04,VALID,918.316,VALID,0,INVALID,120.252,VALID,304.058,VALID,21.0259,VALID,33,VALID,2.19453,
2016-10-14, 16:26:04,VALID,918.407,VALID,0,INVALID,120.115,VALID,397.64,VALID,21.0275,VALID,48,VALID,2.12422,
2016-10-14, 16:27:04,VALID,918.421,VALID,0,INVALID,120.648,VALID,439.112,VALID,21.2242,VALID,309,VALID,0.749219,
2016-10-14, 16:28:04,VALID,918.433,VALID,0,INVALID,120.694,VALID,448.997,VALID,21.2421,VALID,15,VALID,2.42031,
2016-10-14, 16:29:04,VALID,918.458,VALID,0,INVALID,120.641,VALID,438.145,VALID,21.3201,VALID,17,VALID,2.12539,
2016-10-14, 16:30:04,VALID,918.404,VALID,0,INVALID,120.625,VALID,504.114,VALID,21.3786,VALID,17,VALID,2.5375,
2016-10-14, 16:31:04,VALID,918.405,VALID,0,INVALID,119.863,VALID,299.224,VALID,21.3396,VALID,348,VALID,1.87773,
2016-10-14, 16:32:04,VALID,918.387,VALID,0,INVALID,119.65,VALID,307.174,VALID,21.3591,VALID,45,VALID,2.76719,
2016-10-14, 16:33:04,VALID,918.398,VALID,0,INVALID,120.008,VALID,281.496,VALID,21.3981,VALID,22,VALID,2.04531,
2016-10-14, 16:34:04,VALID,918.374,VALID,0,INVALID,120.275,VALID,273.223,VALID,21.4372,VALID,289,VALID,0.283594,
2016-10-14, 16:35:04,VALID,918.36,VALID,0,INVALID,119.771,VALID,272.148,VALID,21.3185,VALID,29,VALID,0.998828,
2016-10-14, 16:36:04,VALID,918.404,VALID,0,INVALID,120.198,VALID,292.455,VALID,21.3981,VALID,8,VALID,1.06797,
2016-10-14, 16:37:04,VALID,918.348,VALID,0,INVALID,120.298,VALID,304.811,VALID,21.377,VALID,23,VALID,1.23281,
2016-10-14, 16:38:04,VALID,918.314,VALID,0,INVALID,119.634,VALID,329.952,VALID,21.3185,VALID,327,VALID,1.7168,
2016-10-14, 16:39:04,VALID,918.357,VALID,0,INVALID,119.589,VALID,374.647,VALID,21.338,VALID,28,VALID,0.207422,
2016-10-14, 16:40:04,VALID,918.375,VALID,0,INVALID,119.779,VALID,319.53,VALID,21.3185,VALID,7,VALID,2.01406,
2016-10-14, 16:41:04,VALID,918.384,VALID,0,INVALID,119.764,VALID,376.474,VALID,21.338,VALID,359,VALID,1.39102,
2016-10-14, 16:42:04,VALID,918.409,VALID,0,INVALID,119.184,VALID,364.655,VALID,21.299,VALID,337,VALID,0.986328,
2016-10-14, 16:43:04,VALID,918.403,VALID,0,INVALID,118.849,VALID,452.65,VALID,21.299,VALID,60,VALID,0,
2016-10-14, 16:44:04,VALID,918.366,VALID,0,INVALID,119.39,VALID,357.779,VALID,21.3965,VALID,17,VALID,2.25508,
2016-10-14, 16:45:04,VALID,918.394,VALID,0,INVALID,118.597,VALID,355.523,VALID,21.416,VALID,5,VALID,1.6125,
2016-10-14, 16:46:04,VALID,918.417,VALID,0,INVALID,118.796,VALID,354.986,VALID,21.5136,VALID,335,VALID,0,
2016-10-14, 16:47:04,VALID,918.378,VALID,0,INVALID,118.773,VALID,408.169,VALID,21.5916,VALID,16,VALID,0,
2016-10-14, 16:48:04,VALID,918.375,VALID,0,INVALID,117.972,VALID,292.777,VALID,21.6306,VALID,353,VALID,0,
2016-10-14, 16:49:04,VALID,918.347,VALID,0,INVALID,117.301,VALID,238.734,VALID,21.6891,VALID,1,VALID,0.0949219,
2016-10-14, 16:50:04,VALID,918.347,VALID,0,INVALID,116.6,VALID,261.619,VALID,21.6485,VALID,300,VALID,0,
2016-10-14, 16:51:04,VALID,918.356,VALID,0,INVALID,117.98,VALID,298.042,VALID,21.7688,VALID,353,VALID,0.003125,
2016-10-14, 16:52:04,VALID,918.376,VALID,0,INVALID,117.645,VALID,285.793,VALID,21.7103,VALID,16,VALID,1.22773,
2016-10-14, 16:53:04,VALID,918.402,VALID,0,INVALID,117.683,VALID,268.495,VALID,21.6908,VALID,351,VALID,0,
2016-10-14, 16:54:04,VALID,918.359,VALID,0,INVALID,116.768,VALID,230.998,VALID,21.6501,VALID,11,VALID,0.753516,
2016-10-14, 16:55:04,VALID,918.354,VALID,0,INVALID,117.294,VALID,211.981,VALID,21.6111,VALID,1,VALID,0,
2016-10-14, 16:56:04,VALID,918.353,VALID,0,INVALID,118.148,VALID,187.377,VALID,21.6111,VALID,328,VALID,2.31562,
2016-10-14, 16:57:04,VALID,918.352,VALID,0,INVALID,117.225,VALID,159.98,VALID,21.455,VALID,23,VALID,1.12227,
2016-10-14, 16:58:04,VALID,918.382,VALID,0,INVALID,118.071,VALID,162.344,VALID,21.4177,VALID,12,VALID,2.06914,
2016-10-14, 16:59:04,VALID,918.411,VALID,0,INVALID,118.773,VALID,169.327,VALID,21.3786,VALID,227,VALID,1.26641,
2016-10-14, 17:00:04,VALID,918.459,VALID,0,INVALID,118.941,VALID,156.327,VALID,21.338,VALID,1,VALID,0,
2016-10-14, 17:01:04,VALID,918.412,VALID,0,INVALID,119.451,VALID,161.377,VALID,21.3965,VALID,13,VALID,0,
2016-10-14, 17:02:04,VALID,918.399,VALID,0,INVALID,119.512,VALID,171.476,VALID,21.4177,VALID,26,VALID,0,
2016-10-14, 17:03:04,VALID,918.423,VALID,0,INVALID,120.038,VALID,159.335,VALID,21.4746,VALID,334,VALID,0,
2016-10-14, 17:04:04,VALID,918.458,VALID,0,INVALID,119.909,VALID,157.724,VALID,21.4746,VALID,15,VALID,0,
2016-10-14, 17:05:04,VALID,918.803,VALID,0,INVALID,119.314,VALID,106.904,VALID,21.3965,VALID,200,VALID,0,
2016-10-14, 17:09:04,VALID,918.84,VALID,0,INVALID,119.39,VALID,111.739,VALID,21.2015,VALID,188,VALID,0.693359,
2016-10-14, 17:10:04,VALID,918.461,VALID,0,INVALID,119.512,VALID,132.26,VALID,21.1039,VALID,206,VALID,0.614844,
2016-10-14, 17:11:04,VALID,918.457,VALID,0,INVALID,120.008,VALID,131.078,VALID,21.0844,VALID,80,VALID,1.62227,
2016-10-14, 17:12:04,VALID,918.449,VALID,0,INVALID,120.038,VALID,143.219,VALID,21.0259,VALID,259,VALID,2.34961,
2016-10-14, 17:13:04,VALID,918.449,VALID,0,INVALID,120.099,VALID,154.823,VALID,20.9463,VALID,360,VALID,0.761328,
2016-10-14, 17:14:04,VALID,918.473,VALID,0,INVALID,120.473,VALID,276.016,VALID,21.0259,VALID,237,VALID,0.697656,
2016-10-14, 17:15:04,VALID,918.458,VALID,0,INVALID,120.564,VALID,317.489,VALID,21.0064,VALID,185,VALID,0.512891,
2016-10-14, 17:16:04,VALID,918.408,VALID,0,INVALID,120.625,VALID,219.717,VALID,21.125,VALID,50,VALID,0.009375,
2016-10-14, 17:17:04,VALID,918.464,VALID,0,INVALID,120.77,VALID,187.377,VALID,21.1819,VALID,221,VALID,0,
2016-10-14, 17:18:04,VALID,918.46,VALID,0,INVALID,120.686,VALID,150.203,VALID,21.1429,VALID,193,VALID,0.610156,
2016-10-14, 17:19:04,VALID,918.469,VALID,0,INVALID,120.633,VALID,191.03,VALID,21.1819,VALID,66,VALID,1.98789,
2016-10-14, 17:20:04,VALID,918.476,VALID,0,INVALID,120.663,VALID,257.966,VALID,21.1819,VALID,345,VALID,0.0113281,
2016-10-14, 17:21:04,VALID,918.497,VALID,0,INVALID,120.419,VALID,266.454,VALID,21.1624,VALID,20,VALID,2.24102,
2016-10-14, 17:22:04,VALID,918.468,VALID,0,INVALID,120.549,VALID,194.468,VALID,21.2795,VALID,15,VALID,0.0335938,
2016-10-14, 17:23:04,VALID,918.44,VALID,0,INVALID,120.313,VALID,220.792,VALID,21.2015,VALID,317,VALID,1.8125,
2016-10-14, 17:24:04,VALID,918.441,VALID,0,INVALID,119.611,VALID,201.13,VALID,21.1039,VALID,258,VALID,0.0324219,
2016-10-14, 17:25:04,VALID,918.512,VALID,0,INVALID,119.733,VALID,190.601,VALID,21.0454,VALID,251,VALID,0.948828,
2016-10-14, 17:26:04,VALID,918.494,VALID,0,INVALID,120.038,VALID,178.46,VALID,21.0454,VALID,45,VALID,2.14375,
2016-10-14, 17:27:04,VALID,918.453,VALID,0,INVALID,120.397,VALID,165.567,VALID,21.1039,VALID,50,VALID,2.04922,
2016-10-14, 17:28:04,VALID,918.426,VALID,0,INVALID,120.633,VALID,120.334,VALID,21.1429,VALID,126,VALID,0,
2016-10-14, 17:29:04,VALID,918.466,VALID,0,INVALID,120.625,VALID,149.773,VALID,21.1624,VALID,19,VALID,0.825,
2016-10-14, 17:30:04,VALID,918.409,VALID,0,INVALID,120.534,VALID,191.997,VALID,21.1429,VALID,323,VALID,0.876953,
2016-10-14, 17:31:04,VALID,918.514,VALID,0,INVALID,120.572,VALID,237.552,VALID,21.1624,VALID,326,VALID,1.4457,
2016-10-14, 17:32:04,VALID,918.328,VALID,0,INVALID,120.252,VALID,275.479,VALID,21.0064,VALID,242,VALID,1.43203,
2016-10-14, 17:33:04,VALID,918.336,VALID,0,INVALID,120.473,VALID,264.842,VALID,21.0649,VALID,75,VALID,1.59063,
2016-10-14, 17:34:04,VALID,918.366,VALID,0,INVALID,120.755,VALID,247.007,VALID,21.1429,VALID,222,VALID,0.0578125,
2016-10-14, 17:35:04,VALID,918.294,VALID,0,INVALID,120.808,VALID,284.612,VALID,21.1234,VALID,9,VALID,0.342578,
2016-10-14, 17:36:04,VALID,918.293,VALID,0,INVALID,120.839,VALID,229.494,VALID,21.1624,VALID,183,VALID,0.238672,
2016-10-14, 17:37:04,VALID,918.357,VALID,0,INVALID,120.801,VALID,262.264,VALID,21.1429,VALID,300,VALID,0,
2016-10-14, 17:38:04,VALID,918.314,VALID,0,INVALID,120.778,VALID,315.017,VALID,21.1039,VALID,289,VALID,1.75781,
2016-10-14, 17:39:04,VALID,918.208,VALID,0,INVALID,120.778,VALID,334.679,VALID,21.1429,VALID,350,VALID,2.33359,
2016-10-14, 17:40:04,VALID,918.325,VALID,0,INVALID,120.724,VALID,330.919,VALID,21.1445,VALID,21,VALID,2.82695,
2016-10-14, 17:41:04,VALID,918.285,VALID,0,INVALID,120.839,VALID,360.573,VALID,21.2015,VALID,30,VALID,2.39414,
2016-10-14, 17:42:04,VALID,918.265,VALID,0,INVALID,120.839,VALID,395.061,VALID,21.338,VALID,288,VALID,0.896875,
2016-10-14, 17:43:04,VALID,918.287,VALID,0,INVALID,120.862,VALID,369.92,VALID,21.4355,VALID,28,VALID,2.21016,
2016-10-14, 17:44:04,VALID,918.257,VALID,0,INVALID,121.029,VALID,442.55,VALID,21.26,VALID,218,VALID,0.832422,
2016-10-14, 17:45:04,VALID,918.269,VALID,0,INVALID,120.839,VALID,408.491,VALID,21.377,VALID,38,VALID,2.08906,
2016-10-14, 17:46:04,VALID,918.174,VALID,0,INVALID,120.862,VALID,403.012,VALID,21.416,VALID,27,VALID,1.95586,
2016-10-14, 17:47:04,VALID,918.249,VALID,0,INVALID,120.839,VALID,433.74,VALID,21.5136,VALID,7,VALID,1.10391,
2016-10-14, 17:48:04,VALID,918.211,VALID,0,INVALID,120.686,VALID,578.785,VALID,21.5136,VALID,295,VALID,1.15937,
2016-10-14, 17:49:04,VALID,918.085,VALID,0,INVALID,120.328,VALID,439.864,VALID,21.5136,VALID,94,VALID,1.4207,
2016-10-14, 17:50:04,VALID,918.1,VALID,0,INVALID,120.427,VALID,333.605,VALID,21.6111,VALID,67,VALID,0.480469,
2016-10-14, 17:51:04,VALID,918.028,VALID,0,INVALID,120.076,VALID,385.284,VALID,21.629,VALID,18,VALID,1.26914,
2016-10-14, 17:52:04,VALID,918.027,VALID,0,INVALID,119.512,VALID,364.44,VALID,21.629,VALID,335,VALID,1.51016,
2016-10-14, 17:53:04,VALID,918.029,VALID,0,INVALID,119.733,VALID,419.773,VALID,21.6891,VALID,120,VALID,0.436719,
2016-10-14, 17:54:04,VALID,918.009,VALID,0,INVALID,119.733,VALID,408.169,VALID,21.7087,VALID,333,VALID,0.725391,
2016-10-14, 17:55:04,VALID,917.991,VALID,0,INVALID,119.413,VALID,434.707,VALID,21.7493,VALID,150,VALID,0.516797,
2016-10-14, 17:56:04,VALID,918.003,VALID,0,INVALID,119.97,VALID,474.568,VALID,21.8842,VALID,12,VALID,0.388281,
2016-10-14, 17:57:04,VALID,918.008,VALID,0,INVALID,120.061,VALID,360.573,VALID,21.9818,VALID,11,VALID,1.28672,
2016-10-14, 17:58:04,VALID,918.069,VALID,0,INVALID,119.893,VALID,312.117,VALID,22.0989,VALID,346,VALID,0.332812,
2016-10-14, 17:59:04,VALID,918.006,VALID,0,INVALID,118.102,VALID,229.065,VALID,22.0208,VALID,49,VALID,1.88242,
2016-10-14, 18:00:04,VALID,918.025,VALID,0,INVALID,119.299,VALID,239.594,VALID,22.1184,VALID,11,VALID,1.02578,
2016-10-14, 18:01:04,VALID,918.043,VALID,0,INVALID,117.82,VALID,258.396,VALID,22.0208,VALID,180,VALID,0.885547,
2016-10-14, 18:02:04,VALID,918.014,VALID,0,INVALID,118.361,VALID,208.651,VALID,22.0403,VALID,347,VALID,0,
2016-10-14, 18:03:04,VALID,918.048,VALID,0,INVALID,118.697,VALID,191.675,VALID,22.0794,VALID,215,VALID,0.472266,
2016-10-14, 18:04:04,VALID,917.971,VALID,0,INVALID,117.462,VALID,230.676,VALID,21.9233,VALID,66,VALID,0.612891,
2016-10-14, 18:05:04,VALID,918.066,VALID,0,INVALID,117.988,VALID,202.741,VALID,21.8045,VALID,225,VALID,0.0015625,
2016-10-14, 18:06:04,VALID,918.036,VALID,0,INVALID,117.698,VALID,192.857,VALID,21.59,VALID,282,VALID,1.17578,
2016-10-14, 18:07:04,VALID,917.977,VALID,0.2,INVALID,118.857,VALID,200.378,VALID,21.5314,VALID,49,VALID,1.91875,
2016-10-14, 18:08:04,VALID,918.055,VALID,0,INVALID,119.665,VALID,309.001,VALID,21.4746,VALID,33,VALID,1.20234,
2016-10-14, 18:09:04,VALID,918.044,VALID,0,INVALID,119.901,VALID,292.992,VALID,21.377,VALID,222,VALID,0.898047,
2016-10-14, 18:10:04,VALID,917.999,VALID,0,INVALID,120.237,VALID,355.523,VALID,21.3575,VALID,279,VALID,0,
2016-10-14, 18:11:04,VALID,918.054,VALID,0,INVALID,120.259,VALID,361.969,VALID,21.2795,VALID,295,VALID,0.223438,
2016-10-14, 18:12:04,VALID,917.921,VALID,0,INVALID,120.259,VALID,282.14,VALID,21.221,VALID,53,VALID,0.522656,
2016-10-14, 18:13:04,VALID,917.973,VALID,0,INVALID,120.602,VALID,270.107,VALID,21.2795,VALID,354,VALID,1.84023,
2016-10-14, 18:14:04,VALID,918.019,VALID,0,INVALID,120.519,VALID,291.38,VALID,21.1819,VALID,215,VALID,0.0148437,
2016-10-14, 18:15:04,VALID,918.051,VALID,0,INVALID,120.397,VALID,292.777,VALID,21.0844,VALID,291,VALID,1.41445,
2016-10-14, 18:16:04,VALID,918.013,VALID,0.2,INVALID,120.458,VALID,208.973,VALID,21.0454,VALID,355,VALID,2.09766,
2016-10-14, 18:17:04,VALID,917.965,VALID,0,INVALID,120.442,VALID,236.693,VALID,20.9869,VALID,38,VALID,1.43086,
2016-10-14, 18:18:04,VALID,917.984,VALID,0,INVALID,120.541,VALID,204.675,VALID,20.9674,VALID,277,VALID,0.124609,
2016-10-14, 18:19:04,VALID,917.94,VALID,0,INVALID,120.625,VALID,162.021,VALID,20.9479,VALID,30,VALID,0.295703,
2016-10-14, 18:20:04,VALID,918.055,VALID,0,INVALID,120.77,VALID,181.253,VALID,20.9869,VALID,206,VALID,0.0292969,
2016-10-14, 18:21:04,VALID,917.95,VALID,0,INVALID,120.885,VALID,233.577,VALID,20.9089,VALID,255,VALID,1.83789,
2016-10-14, 18:22:04,VALID,917.965,VALID,0,INVALID,120.808,VALID,245.61,VALID,20.9284,VALID,302,VALID,0.875,
2016-10-14, 18:23:04,VALID,917.861,VALID,0,INVALID,121.006,VALID,237.123,VALID,20.8113,VALID,10,VALID,5.30312,
2016-10-14, 18:24:04,VALID,918.021,VALID,0,INVALID,120.907,VALID,269.355,VALID,20.7918,VALID,356,VALID,2.14336,
2016-10-14, 18:25:04,VALID,917.968,VALID,0,INVALID,120.968,VALID,277.521,VALID,20.7723,VALID,91,VALID,0,
2016-10-14, 18:26:04,VALID,918.029,VALID,0,INVALID,120.984,VALID,224.122,VALID,20.7723,VALID,236,VALID,1.61289,
2016-10-14, 18:27:04,VALID,917.959,VALID,0,INVALID,121.052,VALID,270.107,VALID,20.6358,VALID,306,VALID,2.73438,
2016-10-14, 18:28:04,VALID,918.035,VALID,0,INVALID,120.877,VALID,292.67,VALID,20.7739,VALID,50,VALID,0,
2016-10-14, 18:29:04,VALID,917.911,VALID,0,INVALID,120.999,VALID,279.562,VALID,20.6959,VALID,331,VALID,4.41602,
2016-10-14, 18:30:04,VALID,918.033,VALID,0,INVALID,120.885,VALID,280.851,VALID,20.6374,VALID,5,VALID,1.06094,
2016-10-14, 18:31:04,VALID,917.976,VALID,0,INVALID,120.877,VALID,320.175,VALID,20.6553,VALID,179,VALID,1.67539,
2016-10-14, 18:32:04,VALID,917.95,VALID,0,INVALID,120.839,VALID,330.059,VALID,20.5984,VALID,72,VALID,2.76992,
2016-10-14, 18:33:04,VALID,918.017,VALID,0,INVALID,120.686,VALID,360.465,VALID,20.6163,VALID,358,VALID,1.69336,
2016-10-14, 18:34:04,VALID,917.973,VALID,0,INVALID,120.793,VALID,390.978,VALID,20.7138,VALID,338,VALID,1.60898,
2016-10-14, 18:35:04,VALID,918.044,VALID,0,INVALID,120.656,VALID,400.326,VALID,20.6959,VALID,224,VALID,0.655078,
2016-10-14, 18:36:04,VALID,917.862,VALID,0,INVALID,120.724,VALID,314.588,VALID,20.7918,VALID,34,VALID,2.87031,
2016-10-14, 18:37:04,VALID,917.976,VALID,0,INVALID,120.885,VALID,382.276,VALID,20.8714,VALID,327,VALID,1.5543,
2016-10-14, 18:38:04,VALID,917.923,VALID,0,INVALID,120.702,VALID,337.15,VALID,20.8113,VALID,185,VALID,0.746484,
2016-10-14, 18:39:04,VALID,917.919,VALID,0,INVALID,120.587,VALID,347.357,VALID,20.8504,VALID,43,VALID,2.37773,
2016-10-14, 18:40:04,VALID,917.894,VALID,0,INVALID,120.618,VALID,357.779,VALID,20.9284,VALID,308,VALID,1.49219,
2016-10-14, 18:41:04,VALID,917.894,VALID,0,INVALID,120.702,VALID,380.234,VALID,20.9479,VALID,87,VALID,1.72969,
2016-10-14, 18:42:04,VALID,917.847,VALID,0,INVALID,120.48,VALID,377.333,VALID,20.9885,VALID,14,VALID,2.59375,
2016-10-14, 18:43:04,VALID,917.869,VALID,0,INVALID,120.702,VALID,389.152,VALID,21.1234,VALID,352,VALID,2.26367,
2016-10-14, 18:44:04,VALID,917.874,VALID,0,INVALID,120.717,VALID,397.532,VALID,21.1429,VALID,92,VALID,1.12109,